Weather History for Port Hedland, WE

Change the Weather History Date:

Thursday, December 12, 2013

  Actual Average Record
Temperature  
Mean Temperature 90 °F -  
Max Temperature 103 °F 98 °F 104 °F (2005)
Min Temperature 77 °F 76 °F 68 °F (2008)
Cooling Degree Days 25    
Growing Degree Days 40 (Base 50)    
Moisture  
Dew Point 67 °F    
Average Humidity 49    
Maximum Humidity 83    
Minimum Humidity 20    
Precipitation  
Precipitation 0.00 in 0.05 in - ()
Sea Level Pressure  
Sea Level Pressure 29.73 in    
Wind  
Wind Speed 9 mph ()    
Max Wind Speed 21 mph    
Max Gust Speed -    
Visibility 7.5 miles    
Events      
Averages and records for this station are not official NWS values.
T = Trace of Precipitation, MM = Missing Value Source: Averaged Metar Reports

Daily Weather History Graph

Daily Weather History Graph

Search for Another Location

Airport:

Trip Planner

Search our weather history database for the weather conditions in past years. The results will help you decide how hot, cold, wet, or windy it might be!

Date:

Astronomy

Dec. 12, 2013 Rise Set
Actual Time 5:18 AM AWST 6:39 PM AWST
Civil Twilight 4:54 AM AWST 7:04 PM AWST
Nautical Twilight 4:24 AM AWST 7:33 PM AWST
Astronomical Twilight 3:54 AM AWST 8:03 PM AWST
Moon 2:17 PM AWST (12/12) 1:25 AM AWST (12/12)
Length of Visible Light 14h 10m
Length of Day
13h 20m
Waxing Gibbous, 76% of the Moon is Illuminated
Dec 12
Waxing Gibbous
Dec 17
Full
Dec 25
Last Quarter
Jan 1
New
Jan 8
First Quarter

Hourly Weather History & Observations

Time (AWST) Temp. Heat Index Dew Point Humidity Pressure Visibility Wind Dir Wind Speed Gust Speed Precip Events Conditions
12:00 AM 81 °F - 72 °F 69% 29.76 in - West 8.1 mph - -  
12:00 AM 80.6 °F 85.4 °F 73.4 °F 79% 29.74 in 6.2 mi West 8.1 mph - N/A   Scattered Clouds
12:30 AM 80.6 °F 85.4 °F 73.4 °F 79% 29.74 in 6.2 mi SW 8.1 mph - N/A   Scattered Clouds
1:00 AM 80.6 °F 85.4 °F 73.4 °F 79% 29.74 in 6.2 mi WSW 6.9 mph - N/A   Unknown
1:30 AM 80.6 °F 84.6 °F 71.6 °F 74% 29.74 in 6.2 mi WSW 6.9 mph - N/A   Unknown
2:00 AM 81 °F - 72 °F 67% 29.74 in - South 5.8 mph - -  
2:00 AM 80.6 °F 84.6 °F 71.6 °F 74% 29.74 in 6.2 mi South 5.8 mph - N/A   Unknown
2:30 AM 78.8 °F - 73.4 °F 83% 29.74 in 6.2 mi SW 3.5 mph - N/A   Unknown
3:00 AM 79 °F - 72 °F 73% 29.73 in - WSW 8.1 mph - -  
3:00 AM 78.8 °F - 71.6 °F 78% 29.71 in 6.2 mi WSW 8.1 mph - N/A   Unknown
3:30 AM 78.8 °F - 71.6 °F 78% 29.71 in 6.2 mi WSW 5.8 mph - N/A   Unknown
4:00 AM 78.8 °F - 71.6 °F 78% 29.71 in 6.2 mi West 8.1 mph - N/A   Unknown
4:30 AM 78.8 °F - 71.6 °F 78% 29.71 in 6.2 mi West 5.8 mph - N/A   Unknown
5:00 AM 78 °F - 72 °F 75% 29.75 in - SSW 5.8 mph - -  
5:00 AM 78.8 °F - 71.6 °F 78% 29.74 in 6.2 mi SSW 5.8 mph - N/A   Unknown
5:30 AM 78.8 °F - 71.6 °F 78% 29.74 in 6.2 mi SSW 4.6 mph - N/A   Unknown
6:00 AM 80 °F - 72 °F 71% 29.76 in 19 mi SW 2.3 mph - -   Partly Cloudy
6:00 AM 80.6 °F 84.6 °F 71.6 °F 74% 29.74 in 6.2 mi SW 2.3 mph - N/A   Partly Cloudy
6:30 AM 82.4 °F 87.2 °F 71.6 °F 70% 29.77 in - SW 4.6 mph - N/A   Clear
7:00 AM 84.2 °F 88.4 °F 69.8 °F 62% 29.77 in 6.2 mi SSW 5.8 mph - N/A   Partly Cloudy
7:30 AM 89.6 °F 93.4 °F 68.0 °F 49% 29.77 in 6.2 mi South 6.9 mph - N/A   Partly Cloudy
8:00 AM 93 °F - 66 °F 31% 29.78 in - SSE 8.1 mph - -  
8:00 AM 93.2 °F 96.2 °F 66.2 °F 41% 29.77 in - SSE 8.1 mph - N/A   Clear
8:30 AM 95.0 °F 96.0 °F 62.6 °F 34% 29.77 in - SE 11.5 mph - N/A   Clear
9:00 AM 98 °F - 60 °F 20% 29.78 in 19 mi ESE 10.4 mph - -   Partly Cloudy
9:00 AM 96.8 °F 97.1 °F 60.8 °F 30% 29.77 in - ESE 10.4 mph - N/A   Clear
9:30 AM 100.4 °F 101.3 °F 60.8 °F 27% 29.77 in - ENE 12.7 mph - N/A   Clear
10:00 AM 98.6 °F 102.8 °F 66.2 °F 35% 29.77 in - North 11.5 mph - N/A   Clear
10:30 AM 98.6 °F 101.0 °F 64.4 °F 32% 29.77 in - North 9.2 mph - N/A   Clear
11:00 AM 99 °F - 64 °F 23% 29.76 in - North 9.2 mph - -  
11:00 AM 98.6 °F 101.0 °F 64.4 °F 32% 29.74 in - North 9.2 mph - N/A   Clear
11:30 AM 102.2 °F 104.2 °F 62.6 °F 27% 29.74 in - North 10.4 mph - N/A   Clear
12:00 PM 101 °F - 64 °F 20% 29.74 in 19 mi North 11.5 mph - -   Partly Cloudy
12:00 PM 102.2 °F 105.5 °F 64.4 °F 29% 29.74 in - North 11.5 mph - N/A   Clear
12:30 PM 102.2 °F 105.5 °F 64.4 °F 29% 29.71 in - NNW 17.3 mph - N/A   Clear
1:00 PM 100.4 °F 101.3 °F 60.8 °F 27% 29.71 in - North 18.4 mph - N/A   Clear
1:30 PM 98.6 °F 99.4 °F 60.8 °F 29% 29.68 in 6.2 mi North 18.4 mph - N/A   Unknown
2:00 PM 99 °F - 62 °F 20% 29.70 in - North 19.6 mph - -  
2:00 PM 98.6 °F 100.0 °F 62.6 °F 30% 29.68 in 6.2 mi North 19.6 mph - N/A   Unknown
2:30 PM 98.6 °F 100.0 °F 62.6 °F 30% 29.68 in 6.2 mi North 20.7 mph - N/A   Unknown
3:00 PM 97 °F - 64 °F 24% 29.67 in 19 mi North 19.6 mph - -   Scattered Clouds
3:00 PM 96.8 °F 99.0 °F 64.4 °F 34% 29.65 in - North 19.6 mph - N/A   Clear
3:30 PM 96.8 °F 100.7 °F 66.2 °F 37% 29.65 in 6.2 mi NNW 20.7 mph - N/A   Unknown
4:00 PM 95.0 °F 98.5 °F 66.2 °F 39% 29.65 in 6.2 mi NNW 19.6 mph - N/A   Unknown
4:30 PM 95.0 °F 99.5 °F 68.0 °F 41% 29.65 in 6.2 mi NNW 19.6 mph - N/A   Unknown
5:00 PM 94 °F - 65 °F 29% 29.65 in - NNW 20.7 mph - -  
5:00 PM 93.2 °F 94.9 °F 64.4 °F 38% 29.65 in 6.2 mi NNW 20.7 mph - N/A   Unknown
5:30 PM 91.4 °F 95.4 °F 68.0 °F 46% 29.65 in 6.2 mi NW 19.6 mph - N/A   Unknown
6:00 PM 89 °F - 68 °F 41% 29.69 in - NW 18.4 mph - -  
6:00 PM 89.6 °F 93.4 °F 68.0 °F 49% 29.68 in 6.2 mi NW 18.4 mph - N/A   Unknown
6:30 PM 87.8 °F 91.4 °F 68.0 °F 52% 29.71 in 6.2 mi West 13.8 mph - N/A   Unknown
7:00 PM 87.8 °F 91.4 °F 68.0 °F 52% 29.74 in 6.2 mi South 19.6 mph - N/A   Scattered Clouds
7:30 PM 84.2 °F 87.3 °F 68.0 °F 58% 29.74 in 6.2 mi SSW 17.3 mph - N/A   Unknown
8:00 PM 84 °F - 69 °F 51% 29.78 in - South 12.7 mph - -  
8:00 PM 84.2 °F 87.3 °F 68.0 °F 58% 29.77 in 6.2 mi South 12.7 mph - N/A   Unknown
8:30 PM 84.2 °F 88.4 °F 69.8 °F 62% 29.80 in 6.2 mi South 17.3 mph - N/A   Unknown
9:00 PM 86 °F - 65 °F 40% 29.80 in - South 12.7 mph - -  
9:00 PM 86.0 °F 88.2 °F 66.2 °F 51% 29.80 in 6.2 mi South 12.7 mph - N/A   Unknown
9:30 PM 86.0 °F 86.1 °F 60.8 °F 43% 29.80 in 6.2 mi South 12.7 mph - N/A   Unknown
10:00 PM 86.0 °F 86.1 °F 60.8 °F 43% 29.80 in 6.2 mi South 8.1 mph - N/A   Unknown
10:30 PM 86.0 °F 86.1 °F 60.8 °F 43% 29.77 in 6.2 mi SSE 6.9 mph - N/A   Unknown
11:00 PM 85 °F - 60 °F 33% 29.78 in - SE 5.8 mph - -  
11:00 PM 84.2 °F 84.4 °F 60.8 °F 45% 29.77 in 6.2 mi SE 5.8 mph - N/A   Unknown
11:30 PM 82.4 °F 82.9 °F 60.8 °F 48% 29.77 in 6.2 mi SW 6.9 mph - N/A   Unknown